Hallock, MN

7:27 PM CDT on March 28, 2017 (GMT -0500)
Hallock Municipal

Weather History for KHCO - October, 2012

Change the Weather History Date:

Thursday, October 18, 2012

  Actual Average Record
Temperature  
Mean Temperature 46 °F -  
Max Temperature 51 °F 49 °F 77 °F (1963)
Min Temperature 41 °F 27 °F 8 °F (1972)
Degree Days  
Heating Degree Days 19    
Moisture  
Dew Point 46 °F    
Average Humidity 98    
Maximum Humidity 100    
Minimum Humidity 93    
Precipitation  
Precipitation 0.25 in - - ()
Sea Level Pressure  
Sea Level Pressure 29.39 in    
Wind  
Wind Speed 15 mph (North)    
Max Wind Speed 33 mph    
Max Gust Speed 43 mph    
Visibility 8 miles    
Events Rain    
Averages and records for this station are not official NWS values.
T = Trace of Precipitation, MM = Missing Value Source: NWS Daily Summary

Daily Weather History Graph

Daily Weather History Graph

Search for Another Location

Airport or City:

Trip Planner

Search our weather history database for the weather conditions in past years. The results will help you decide how hot, cold, wet, or windy it might be!

Date:

Astronomy

Oct. 18, 2012 Rise Set
Actual Time 7:53 AM CDT 6:31 PM CDT
Civil Twilight 7:21 AM CDT 7:03 PM CDT
Nautical Twilight 6:44 AM CDT 7:39 PM CDT
Astronomical Twilight 6:08 AM CDT 8:16 PM CDT
Moon 11:54 AM CDT (10/18) 8:48 PM CDT (10/18)
Length of Visible Light 11h 41m
Length of Day
10h 37m
Waxing Crescent, 14% of the Moon is Illuminated
Oct 18
Waxing Crescent
Oct 21
First Quarter
Oct 29
Full
Nov 6
Last Quarter
Nov 13
New

Hourly Weather History & Observations

Time (CDT) Temp. Windchill Dew Point Humidity Pressure Visibility Wind Dir Wind Speed Gust Speed Precip Events Conditions
12:14 AM 51.8 °F - 51.8 °F 100% 29.06 in 4.0 mi North 5.8 mph - N/A   Overcast
12:34 AM 51.8 °F - 51.8 °F 100% 29.06 in 7.0 mi North 6.9 mph - N/A   Overcast
12:54 AM 51.8 °F - 51.8 °F 100% 29.06 in 7.0 mi North 5.8 mph - N/A   Overcast
1:14 AM 51.8 °F - 51.8 °F 100% 29.07 in 7.0 mi NNE 5.8 mph - N/A   Overcast
1:34 AM 51.8 °F - 51.8 °F 100% 29.09 in 7.0 mi NE 5.8 mph - N/A   Overcast
1:53 AM 51.8 °F - 51.8 °F 100% 29.09 in 5.0 mi NE 5.8 mph - N/A   Overcast
2:14 AM 51.8 °F - 51.8 °F 100% 29.10 in 7.0 mi NE 4.6 mph - N/A   Overcast
2:34 AM 51.8 °F - 51.8 °F 100% 29.11 in 5.0 mi NE 6.9 mph - N/A   Overcast
2:53 AM 51.8 °F - 51.8 °F 100% 29.11 in 3.0 mi ENE 5.8 mph - N/A   Overcast
3:14 AM 50.0 °F - 50.0 °F 100% 29.13 in 7.0 mi East 15.0 mph - N/A   Overcast
3:34 AM 48.2 °F - 48.2 °F 100% 29.14 in 10.0 mi East 12.7 mph - N/A   Overcast
3:53 AM 48.2 °F - 48.2 °F 100% 29.15 in 10.0 mi East 11.5 mph - N/A   Overcast
4:14 AM 48.2 °F - 48.2 °F 100% 29.16 in 10.0 mi East 6.9 mph - N/A   Overcast
4:34 AM 48.2 °F - 48.2 °F 100% 29.18 in 10.0 mi ENE 12.7 mph - N/A   Overcast
4:53 AM 48.2 °F - 46.4 °F 93% 29.19 in 10.0 mi ENE 10.4 mph - N/A   Overcast
5:14 AM 48.2 °F - 46.4 °F 93% 29.21 in 10.0 mi ENE 10.4 mph - N/A   Overcast
5:34 AM 48.2 °F - 46.4 °F 93% 29.22 in 10.0 mi ENE 9.2 mph - N/A   Overcast
5:53 AM 48.2 °F - 46.4 °F 93% 29.23 in 10.0 mi NE 6.9 mph - N/A   Overcast
6:34 AM 48.2 °F - 46.4 °F 93% 29.25 in 10.0 mi NNE 9.2 mph - N/A   Overcast
6:54 AM 48.2 °F - 46.4 °F 93% 29.27 in 10.0 mi North 9.2 mph - N/A   Overcast
7:14 AM 48.2 °F - 46.4 °F 93% 29.28 in 7.0 mi North 8.1 mph - N/A   Overcast
7:34 AM 48.2 °F - 46.4 °F 93% 29.29 in 7.0 mi North 5.8 mph - N/A   Overcast
7:54 AM 48.2 °F - 46.4 °F 93% 29.30 in 10.0 mi NNE 10.4 mph - N/A   Overcast
8:14 AM 48.2 °F - 48.2 °F 100% 29.31 in 10.0 mi North 9.2 mph - N/A   Overcast
8:34 AM 48.2 °F - 48.2 °F 100% 29.33 in 10.0 mi North 10.4 mph - N/A   Overcast
8:54 AM 48.2 °F - 48.2 °F 100% 29.34 in 10.0 mi North 13.8 mph - N/A   Overcast
9:14 AM 50.0 °F - 48.2 °F 94% 29.34 in 10.0 mi North 10.4 mph - N/A   Overcast
9:34 AM 50.0 °F - 48.2 °F 94% 29.35 in 10.0 mi North 11.5 mph - N/A   Mostly Cloudy
9:54 AM 51.8 °F - 50.0 °F 94% 29.35 in 10.0 mi North 16.1 mph 20.7 mph N/A   Overcast
10:14 AM 51.8 °F - 50.0 °F 94% 29.36 in 4.0 mi North 16.1 mph - N/A   Overcast
10:34 AM 50.0 °F - 48.2 °F 94% 29.36 in 4.0 mi NNW 21.9 mph 28.8 mph 0.01 in   Light Drizzle
10:54 AM 48.2 °F - 48.2 °F 100% 29.37 in 7.0 mi NNW 21.9 mph 28.8 mph 0.01 in   Light Drizzle
11:14 AM 48.2 °F - 48.2 °F 100% 29.37 in 1.8 mi North 24.2 mph 33.4 mph 0.01 in Rain Rain
11:34 AM 48.2 °F - 46.4 °F 93% 29.37 in 5.0 mi NNW 26.5 mph 35.7 mph 0.03 in Rain Light Rain
11:54 AM 46.4 °F 37.9 °F 46.4 °F 100% 29.38 in 10.0 mi NNW 25.3 mph 35.7 mph 0.05 in Rain Rain
12:14 PM 46.4 °F 37.4 °F 46.4 °F 100% 29.39 in 10.0 mi North 28.8 mph 34.5 mph 0.02 in Rain Light Rain
12:34 PM 46.4 °F 36.9 °F 46.4 °F 100% 29.39 in 10.0 mi North 32.2 mph 39.1 mph 0.03 in Rain Light Rain
12:54 PM 46.4 °F 37.9 °F 46.4 °F 100% 29.41 in 10.0 mi North 25.3 mph 38.0 mph 0.04 in Rain Light Rain
1:14 PM 46.4 °F 37.0 °F 46.4 °F 100% 29.41 in 10.0 mi North 31.1 mph 40.3 mph 0.01 in Rain Light Rain
1:34 PM 46.4 °F 37.7 °F 44.6 °F 93% 29.42 in 10.0 mi North 26.5 mph 40.3 mph 0.01 in Rain Light Rain
1:54 PM 46.4 °F 37.5 °F 44.6 °F 93% 29.42 in 10.0 mi North 27.6 mph 39.1 mph 0.01 in   Light Drizzle
2:14 PM 44.6 °F 35.5 °F 44.6 °F 100% 29.43 in 10.0 mi North 25.3 mph 35.7 mph N/A   Overcast
2:34 PM 44.6 °F 34.7 °F 44.6 °F 100% 29.43 in 10.0 mi North 29.9 mph 40.3 mph N/A   Light Drizzle
2:54 PM 44.6 °F 35.1 °F 44.6 °F 100% 29.45 in 7.0 mi North 27.6 mph 41.4 mph N/A Rain Light Rain
3:14 PM 44.6 °F 35.9 °F 44.6 °F 100% 29.46 in 2.5 mi North 23.0 mph 38.0 mph 0.01 in   Overcast
3:34 PM 44.6 °F 35.3 °F 44.6 °F 100% 29.47 in 2.5 mi North 26.5 mph 35.7 mph 0.01 in Rain Light Rain
3:54 PM 44.6 °F 35.3 °F 44.6 °F 100% 29.48 in 2.5 mi North 26.5 mph 36.8 mph 0.01 in Rain Light Rain
4:14 PM 44.6 °F 35.1 °F 44.6 °F 100% 29.49 in 4.0 mi North 27.6 mph 35.7 mph 0.01 in   Overcast
4:34 PM 44.6 °F 34.6 °F 44.6 °F 100% 29.50 in 5.0 mi North 31.1 mph 42.6 mph 0.01 in Rain Light Rain
4:54 PM 44.6 °F 35.1 °F 44.6 °F 100% 29.51 in 7.0 mi North 27.6 mph 36.8 mph 0.01 in   Overcast
5:14 PM 44.6 °F 34.7 °F 44.6 °F 100% 29.53 in 10.0 mi North 29.9 mph 42.6 mph N/A Rain Light Rain
5:34 PM 44.6 °F 35.1 °F 44.6 °F 100% 29.54 in 7.0 mi North 27.6 mph 38.0 mph 0.02 in Rain Light Rain
5:54 PM 44.6 °F 35.3 °F 44.6 °F 100% 29.55 in 10.0 mi North 26.5 mph 36.8 mph 0.02 in Rain Light Rain
6:14 PM 44.6 °F 35.1 °F 42.8 °F 93% 29.56 in 10.0 mi North 27.6 mph 39.1 mph 0.01 in Rain Light Rain
6:34 PM 42.8 °F 32.5 °F 42.8 °F 100% 29.57 in 10.0 mi North 28.8 mph 38.0 mph 0.01 in   Light Drizzle
6:54 PM 42.8 °F 32.3 °F 42.8 °F 100% 29.58 in 10.0 mi North 29.9 mph 40.3 mph 0.02 in Rain Light Rain
7:14 PM 42.8 °F 32.5 °F 42.8 °F 100% 29.59 in 10.0 mi North 28.8 mph 35.7 mph 0.01 in Rain Light Rain
7:34 PM 42.8 °F 32.3 °F 42.8 °F 100% 29.61 in 7.0 mi North 29.9 mph 39.1 mph 0.02 in Rain Light Rain
7:54 PM 42.8 °F 31.8 °F 42.8 °F 100% 29.61 in 10.0 mi North 33.4 mph 41.4 mph 0.02 in Rain Light Rain
8:34 PM 42.8 °F 33.3 °F 42.8 °F 100% 29.63 in 10.0 mi North 24.2 mph 34.5 mph 0.02 in Rain Light Rain
8:54 PM 42.8 °F 33.1 °F 41.0 °F 93% 29.64 in 7.0 mi North 25.3 mph 34.5 mph 0.03 in Rain Light Rain
9:14 PM 41.0 °F 30.5 °F 41.0 °F 100% 29.64 in 7.0 mi North 26.5 mph 38.0 mph 0.01 in Rain Light Rain
9:34 PM 41.0 °F 30.5 °F 41.0 °F 100% 29.66 in 5.0 mi North 26.5 mph 35.7 mph 0.02 in Rain Light Rain
9:54 PM 41.0 °F 30.7 °F 41.0 °F 100% 29.66 in 3.0 mi North 25.3 mph 34.5 mph 0.02 in   Overcast
10:14 PM 41.0 °F 30.5 °F 41.0 °F 100% 29.67 in 4.0 mi NNW 26.5 mph 34.5 mph N/A   Light Drizzle
10:34 PM 41.0 °F 30.2 °F 41.0 °F 100% 29.67 in 3.0 mi North 27.6 mph 32.2 mph 0.01 in   Overcast
10:54 PM 41.0 °F 30.7 °F 41.0 °F 100% 29.67 in 5.0 mi North 25.3 mph 35.7 mph 0.01 in   Overcast
11:14 PM 41.0 °F 31.1 °F 41.0 °F 100% 29.68 in 7.0 mi North 23.0 mph 33.4 mph N/A   Light Drizzle
11:34 PM 41.0 °F 30.7 °F 41.0 °F 100% 29.68 in 7.0 mi North 25.3 mph 33.4 mph N/A   Light Drizzle
11:54 PM 41.0 °F 30.2 °F 41.0 °F 100% 29.68 in 7.0 mi North 27.6 mph 35.7 mph N/A   Overcast